Stations météo

réclame
Mon MeteoGroup
Yecla, Espagne (8356): Température de l'air & dewpoint: 14.06.2018 07:00:00 - 20.06.2018 07:00:00 (CEST)Yecla, Espagne (8356): Vitesse du vent & gusts: 14.06.2018 07:00:00 - 20.06.2018 07:00:00 (CEST)Yecla, Espagne (8356): Direction du vent: 14.06.2018 07:00:00 - 20.06.2018 07:00:00 (CEST)Yecla, Espagne (8356): reduced air pressure: 14.06.2018 07:00:00 - 20.06.2018 07:00:00 (CEST)Yecla, Espagne (8356): visibility: 14.06.2018 07:00:00 - 20.06.2018 07:00:00 (CEST)Yecla, Espagne (8356): Ensoleillement: 14.06.2018 07:00:00 - 20.06.2018 07:00:00 (CEST)Yecla, Espagne (8356): Quantités de précipitations: 14.06.2018 07:00:00 - 20.06.2018 07:00:00 (CEST)
Date & Time tt [°C] td [°C] ff [km/h] ff [knt] fx [km/h] fx [knt] dd ppp [hPa] vv [km] sd [min] rr [mm]
20.06.2018 07:00:00 12,1 8,5 5 3 8 5 W 1021,4 13 4 0,0
20.06.2018 06:00:00 13,2 9,0 2 1 - - N 1021,1 20 - -
20.06.2018 05:00:00 13,7 9,2 9 5 11 6 W 1021,1 20 0 0,0
20.06.2018 04:00:00 14,3 9,0 4 2 11 6 W 1021,3 20 0 0,0
20.06.2018 03:00:00 16,3 9,4 11 6 16 9 WSW 1020,9 20 0 0,0
20.06.2018 02:00:00 16,5 9,7 8 4 11 6 WSW 1021,0 20 0 -
20.06.2018 01:00:00 17,7 9,8 6 4 13 7 WSW 1021,0 20 0 0,0
20.06.2018 00:00:00 19,2 10,2 8 4 19 10 WSW 1020,7 20 0 0,0
19.06.2018 23:00:00 20,1 10,8 10 6 18 10 WSW 1020,2 20 0 0,0
19.06.2018 22:00:00 21,1 10,9 8 5 17 9 SSW 1019,1 20 0 0,0
19.06.2018 21:00:00 23,1 10,9 10 5 21 12 S 1018,6 20 33 0,0
19.06.2018 20:00:00 25,5 10,5 12 7 27 15 SE 1017,7 20 60 -
19.06.2018 19:00:00 26,9 10,2 11 6 27 14 SSE 1017,3 20 60 0,0
19.06.2018 18:00:00 27,6 9,4 13 7 29 15 SSE 1017,6 20 60 0,0
19.06.2018 17:00:00 27,9 8,7 10 5 25 14 ESE 1017,7 20 60 0,0
19.06.2018 16:00:00 27,8 9,2 8 5 26 14 SSE 1018,2 20 60 0,0
19.06.2018 15:00:00 27,4 9,3 11 6 33 18 SE 1018,7 20 60 0,0
19.06.2018 14:00:00 26,8 9,7 10 5 26 14 SE 1019,4 20 60 -
19.06.2018 13:00:00 26,1 9,8 10 6 21 12 SE 1019,9 20 60 0,0
19.06.2018 12:00:00 25,2 9,9 9 5 21 12 ESE 1020,4 20 60 0,0
19.06.2018 11:00:00 23,6 10,3 9 5 17 9 SSW 1020,9 16 60 0,0
19.06.2018 10:00:00 22,4 9,9 10 5 18 10 SE 1021,3 20 60 0,0
19.06.2018 09:00:00 21,4 9,6 3 1 7 4 E 1021,5 20 60 0,0
19.06.2018 08:00:00 17,2 10,8 6 4 9 5 WSW 1022,1 20 60 -
19.06.2018 07:00:00 13,3 9,7 6 4 9 5 WSW 1022,9 19 5 0,0
19.06.2018 06:00:00 13,3 9,3 3 2 6 3 WSW 1022,5 20 0 0,0
19.06.2018 05:00:00 14,9 9,7 3 1 14 7 N 1021,8 20 0 0,0
19.06.2018 04:00:00 16,1 9,9 9 5 13 7 W 1021,3 20 0 0,0
19.06.2018 03:00:00 16,6 10,0 8 4 14 8 W 1021,2 20 0 0,0
19.06.2018 02:00:00 17,0 10,4 5 3 16 8 W 1021,1 20 0 -
19.06.2018 01:00:00 - - - - - - - - - - -
19.06.2018 00:00:00 20,7 11,1 6 3 17 9 ENE 1020,3 20 0 0,0
18.06.2018 23:00:00 21,5 12,1 9 5 15 8 NNE 1019,5 20 0 0,0
18.06.2018 22:00:00 23,0 12,0 7 4 13 7 ENE 1018,6 20 0 0,0
18.06.2018 21:00:00 24,5 11,4 9 5 19 11 SSE 1017,8 20 33 0,0
18.06.2018 20:00:00 26,8 10,0 11 6 24 13 SSE 1016,9 20 60 -
18.06.2018 19:00:00 28,0 10,2 13 7 28 15 SE 1016,3 17 60 0,0
18.06.2018 18:00:00 28,6 10,8 16 9 34 19 S 1016,4 20 57 0,0
18.06.2018 17:00:00 30,5 5,0 18 10 - - ENE 1016,0 20 60 0,0
18.06.2018 16:00:00 30,8 7,3 12 7 31 17 E 1016,2 20 60 0,0
18.06.2018 15:00:00 30,1 7,3 13 7 24 13 ENE 1017,1 20 60 0,0
18.06.2018 14:00:00 29,6 8,1 8 4 18 10 ESE 1017,8 20 60 -
18.06.2018 13:00:00 28,4 9,7 7 4 15 8 SE 1018,5 20 60 0,0
18.06.2018 12:00:00 27,0 8,9 8 4 18 10 ESE 1019,2 20 60 0,0
18.06.2018 11:00:00 25,5 9,7 7 4 17 9 E 1019,5 20 60 0,0
18.06.2018 10:00:00 23,3 8,5 8 4 16 9 ENE 1020,0 20 60 0,0
18.06.2018 09:00:00 21,1 8,7 9 5 13 7 NE 1020,5 20 60 0,0
18.06.2018 08:00:00 16,4 11,1 6 3 8 4 WSW 1021,5 20 57 -
18.06.2018 07:00:00 14,3 10,8 3 2 6 3 SW 1021,5 20 4 0,0
18.06.2018 06:00:00 14,3 10,8 5 3 9 5 WSW 1021,1 20 0 0,0
18.06.2018 05:00:00 15,1 10,5 3 2 9 5 S 1021,2 20 0 0,0
18.06.2018 04:00:00 15,8 10,5 2 1 13 7 SSW 1021,0 20 0 0,0
18.06.2018 03:00:00 16,6 10,6 10 6 13 7 WSW 1021,4 20 0 0,0
18.06.2018 02:00:00 16,7 10,3 2 1 6 3 N 1021,6 20 0 -
18.06.2018 01:00:00 18,0 10,4 2 1 6 4 ESE 1021,1 20 0 0,0
18.06.2018 00:00:00 20,0 10,2 1 1 10 6 WNW 1020,5 20 0 0,0
17.06.2018 23:00:00 21,1 9,7 6 4 16 8 WSW 1019,9 19 0 0,0
17.06.2018 22:00:00 22,7 9,8 6 3 15 8 SW 1018,8 20 0 0,0
17.06.2018 21:00:00 25,0 9,7 10 6 22 12 SW 1017,7 20 33 0,0
17.06.2018 20:00:00 27,2 9,6 13 7 29 15 SSE 1016,8 20 60 -
17.06.2018 19:00:00 28,7 9,4 15 8 30 16 SSE 1016,0 20 60 0,0
17.06.2018 18:00:00 30,4 9,8 - - - - - 1015,4 20 60 0,0
17.06.2018 17:00:00 31,2 7,0 5 3 20 11 S 1015,6 20 60 0,0
17.06.2018 16:00:00 30,8 6,7 9 5 16 9 E 1016,0 20 60 0,0
17.06.2018 15:00:00 30,0 6,5 6 4 21 11 S 1016,6 20 60 0,0
17.06.2018 14:00:00 28,9 6,8 10 5 18 10 ESE 1017,2 20 60 -
17.06.2018 13:00:00 27,7 7,0 5 3 24 13 SSE 1017,8 20 60 0,0
17.06.2018 12:00:00 26,0 7,1 5 3 18 10 S 1018,1 20 60 0,0
17.06.2018 11:00:00 24,9 4,1 8 4 15 8 SE 1018,4 20 60 0,0
17.06.2018 10:00:00 22,3 9,0 5 3 11 6 NE 1019,0 20 60 0,0
17.06.2018 09:00:00 19,1 11,7 3 2 6 4 E 1019,3 20 33 0,0
17.06.2018 08:00:00 16,8 11,3 2 1 6 3 SSE 1019,4 20 37 -
17.06.2018 07:00:00 15,0 10,6 2 1 6 4 SW 1019,2 20 0 0,0
17.06.2018 06:00:00 15,1 10,5 5 3 11 6 WSW 1018,9 20 0 0,0
17.06.2018 05:00:00 15,2 10,6 5 3 12 6 WSW 1018,8 20 0 0,0
17.06.2018 04:00:00 15,8 11,0 9 5 11 6 WSW 1018,3 20 0 0,0
17.06.2018 03:00:00 17,2 11,0 2 1 9 5 ENE 1018,1 20 0 0,0
17.06.2018 02:00:00 18,3 10,9 7 4 13 7 NE 1018,0 20 0 -
17.06.2018 01:00:00 18,6 12,1 9 5 14 7 NNE 1017,8 20 0 0,0
17.06.2018 00:00:00 19,6 12,1 10 6 19 10 NE 1017,0 20 0 0,0
16.06.2018 23:00:00 20,9 9,2 10 5 16 8 NE 1016,1 20 0 0,0
16.06.2018 22:00:00 23,1 8,0 3 2 14 7 ENE 1014,5 20 0 0,0
16.06.2018 21:00:00 25,2 6,4 11 6 18 10 SW 1013,4 20 30 0,0
16.06.2018 20:00:00 26,8 6,2 9 5 18 10 S 1012,4 20 40 -
16.06.2018 19:00:00 28,7 6,1 11 6 24 13 S 1011,7 20 60 0,0
16.06.2018 18:00:00 29,7 6,4 14 8 25 14 ESE 1011,4 20 60 0,0
16.06.2018 17:00:00 30,1 7,8 12 6 24 13 ESE 1011,3 20 60 0,0
16.06.2018 16:00:00 30,1 7,3 10 6 26 14 S 1011,7 20 60 0,0
16.06.2018 15:00:00 29,6 6,8 9 5 25 14 SSE 1012,3 20 60 0,0
16.06.2018 14:00:00 28,5 7,7 12 7 27 15 SE 1012,9 20 60 -
16.06.2018 13:00:00 27,4 7,8 10 5 24 13 S 1013,7 20 60 0,0
16.06.2018 12:00:00 25,8 9,6 6 4 20 11 ESE 1014,6 16 60 0,0
16.06.2018 11:00:00 24,0 9,2 7 4 15 8 S 1014,9 20 60 0,0
16.06.2018 10:00:00 22,2 11,2 8 4 16 9 E 1015,3 20 60 0,0
16.06.2018 09:00:00 20,2 11,1 7 4 14 7 NE 1015,3 20 60 0,0
16.06.2018 08:00:00 17,2 12,1 1 1 6 4 S 1015,5 19 58 -
16.06.2018 07:00:00 13,3 10,5 3 2 10 5 SW 1016,3 18 0 0,0
16.06.2018 06:00:00 13,7 10,3 3 2 6 4 W 1015,9 18 0 0,0
16.06.2018 05:00:00 15,1 10,9 6 3 12 6 W 1015,6 20 0 0,0
16.06.2018 04:00:00 14,7 10,5 5 3 13 7 WSW 1015,8 20 0 0,0
16.06.2018 03:00:00 16,2 11,3 12 7 15 8 WSW 1015,7 20 0 0,0
16.06.2018 02:00:00 16,4 11,3 4 2 10 5 W 1015,8 20 0 -
16.06.2018 01:00:00 17,3 11,6 1 1 7 4 SW 1015,8 20 0 0,0
16.06.2018 00:00:00 18,6 11,4 4 2 6 4 NNE 1015,2 20 0 0,0
15.06.2018 23:00:00 20,1 11,6 3 2 6 3 WSW 1014,5 20 0 0,0
15.06.2018 22:00:00 21,7 11,7 3 2 16 9 SW 1013,3 20 0 0,0
15.06.2018 21:00:00 24,0 11,3 9 5 22 12 SW 1012,3 20 32 0,0
15.06.2018 20:00:00 26,0 11,3 16 8 29 16 S 1011,2 20 60 -
15.06.2018 19:00:00 28,3 10,0 16 9 31 17 S 1010,3 20 60 0,0
15.06.2018 18:00:00 31,2 4,8 11 6 25 14 W 1009,9 20 60 0,0
15.06.2018 17:00:00 31,1 4,8 8 4 29 15 WNW 1010,3 20 60 0,0
15.06.2018 16:00:00 29,3 6,7 16 9 29 16 SSW 1011,2 20 60 0,0
15.06.2018 15:00:00 28,6 6,7 18 10 26 14 WSW 1011,9 20 60 0,0
15.06.2018 14:00:00 27,8 8,7 10 5 23 13 SSW 1012,5 20 60 -
15.06.2018 13:00:00 26,3 9,6 8 4 22 12 SE 1013,3 18 60 0,0
15.06.2018 12:00:00 25,1 10,5 7 4 17 9 ESE 1013,7 20 60 0,0
15.06.2018 11:00:00 23,2 10,9 6 4 15 8 SSE 1014,0 20 60 0,0
15.06.2018 10:00:00 21,5 11,6 4 2 8 5 SSE 1014,6 20 60 0,0
15.06.2018 09:00:00 18,4 11,0 2 1 6 3 ESE 1015,4 20 60 0,0
15.06.2018 08:00:00 15,2 11,0 3 2 5 3 ENE 1015,9 20 57 -
15.06.2018 07:00:00 12,7 9,9 1 1 6 4 W 1016,3 20 0 0,0
15.06.2018 06:00:00 12,4 9,8 4 2 8 4 W 1016,4 20 0 0,0
15.06.2018 05:00:00 13,7 9,7 3 2 12 7 W 1016,1 20 0 0,0
15.06.2018 04:00:00 13,3 9,9 6 3 9 5 WSW 1016,4 20 0 0,0
15.06.2018 03:00:00 14,5 9,9 9 5 14 8 WSW 1016,2 20 0 0,0
15.06.2018 02:00:00 15,0 10,2 6 4 12 6 W 1016,4 20 0 -
15.06.2018 01:00:00 15,5 9,8 6 4 11 6 WSW 1016,5 20 0 0,0
15.06.2018 00:00:00 16,4 10,3 6 4 12 6 WSW 1016,3 20 0 0,0
14.06.2018 23:00:00 17,5 10,4 6 3 10 5 WSW 1015,6 20 0 0,0
14.06.2018 22:00:00 20,2 10,6 4 2 11 6 SSW 1014,4 20 0 0,0
14.06.2018 21:00:00 22,6 10,0 8 4 26 14 ESE 1013,1 20 29 0,0
14.06.2018 20:00:00 26,7 -1,2 6 4 24 13 ENE 1011,4 20 60 -
14.06.2018 19:00:00 27,9 -2,2 6 3 23 13 NNW 1010,8 19 60 0,0
14.06.2018 18:00:00 27,9 0,6 8 5 29 15 WSW 1011,0 6 60 0,0
14.06.2018 17:00:00 27,8 -1,2 - - - - - 1011,2 20 60 0,0
14.06.2018 16:00:00 27,3 0,9 11 6 32 17 ESE 1011,6 20 60 0,0
14.06.2018 15:00:00 26,4 3,0 13 7 32 17 W 1012,2 20 60 0,0
14.06.2018 14:00:00 25,4 3,9 10 5 31 17 W 1012,8 20 60 -
14.06.2018 13:00:00 24,6 3,8 8 4 32 18 W 1013,3 20 60 0,0
14.06.2018 12:00:00 23,7 4,6 - - - - - 1013,4 20 60 0,0
14.06.2018 11:00:00 22,5 5,0 10 5 25 13 WSW 1013,6 20 60 0,0
14.06.2018 10:00:00 21,4 4,8 5 3 14 7 WSW 1014,0 18 60 0,0
14.06.2018 09:00:00 19,5 6,5 7 4 27 14 S 1014,6 20 60 0,0
14.06.2018 08:00:00 17,8 4,6 18 10 27 15 NNW 1014,8 20 28 -
14.06.2018 07:00:00 17,1 4,8 18 10 27 15 NW 1015,1 20 0 0,0

tt = Température de l'air
td = dewpoint
ff = Vitesse du vent
fx = gusts
dd = Direction du vent
ppp = reduced air pressure
vv = visibility
sd = Ensoleillement
rr = Quantités de précipitations

stations d'obs. à proximité